Total_Precipitation_Accumulation
1.70 2.18 2.71 3.20 3.87 4.79 5.75 6.19 6.05 5.46 4.97 4.52 4.08 3.80 3.51 3.28 3.16 2.85 2.49 2.41 2.40 2.44 2.69 2.42 2.62 2.57 2.64 2.67 2.61 2.73 2.69 2.42 2.55 2.96 2.90 2.58 2.36 2.39 2.30 2.21 2.29 2.07 2.09
1.76 2.28 2.88 3.26 3.60 4.14 4.91 5.29 5.02 4.39 3.75 3.48 3.39 3.30 3.25 2.91 2.69 2.61 2.54 2.24 2.26 2.34 2.40 2.51 2.31 2.31 2.44 2.37 2.36 2.65 2.60 2.30 2.39 2.82 3.03 2.88 2.90 2.65 2.05 2.03 2.19 2.17 2.23
1.55 2.29 2.83 3.13 3.39 3.60 3.59 3.75 3.70 3.26 2.92 2.80 2.80 2.82 2.97 2.77 2.49 2.40 2.33 2.09 2.01 1.97 2.12 2.18 2.24 2.33 2.22 2.29 2.33 2.37 2.47 2.42 2.26 2.34 2.88 2.84 2.74 2.59 2.32 2.01 1.98 2.16 2.39
1.40 2.15 2.44 2.56 2.62 2.70 2.50 2.51 2.65 2.56 2.53 2.42 2.43 2.34 2.21 2.21 2.12 2.10 2.06 2.01 1.89 1.80 1.72 1.83 1.99 2.18 2.14 2.36 2.10 2.13 2.35 2.43 2.20 2.21 2.32 2.35 2.44 2.57 2.40 2.06 1.88 1.94 2.05
1.10 1.44 1.51 1.66 1.75 1.80 1.83 2.02 2.33 2.43 2.35 2.28 2.39 2.39 2.10 1.97 1.90 1.94 2.05 1.99 1.88 1.73 1.58 1.66 1.86 2.03 2.09 2.18 2.17 2.39 2.32 2.22 2.17 2.15 2.23 2.32 2.35 2.23 2.29 2.22 1.97 1.87 1.74
0.80 0.99 1.04 1.13 1.20 1.24 1.36 1.60 2.06 2.28 2.16 2.11 2.14 2.11 2.05 2.02 1.93 1.88 1.91 1.88 1.81 1.81 1.78 1.73 1.84 1.88 1.92 1.98 2.07 2.26 2.24 2.19 2.21 2.08 2.02 2.23 2.33 2.31 2.39 2.22 1.98 1.84 1.63
0.72 0.83 0.99 1.05 0.98 0.94 1.07 1.30 1.63 1.78 1.75 1.81 1.92 1.99 2.06 2.03 1.88 1.82 1.76 1.73 1.60 1.67 1.84 1.84 1.86 1.91 1.96 1.92 2.03 2.09 2.07 2.09 2.19 2.10 1.99 1.99 1.99 2.16 2.30 2.31 2.00 1.86 1.69
0.61 0.64 0.74 0.74 0.73 0.80 0.89 1.07 1.24 1.33 1.43 1.54 1.72 1.87 1.89 1.87 1.82 1.94 1.81 1.67 1.50 1.46 1.64 1.80 1.82 1.79 1.75 1.78 2.18 1.99 1.93 2.07 2.14 2.06 2.32 2.19 1.97 2.16 2.29 2.37 2.43 2.24 2.12
0.45 0.46 0.52 0.56 0.61 0.78 0.90 0.96 1.06 1.17 1.28 1.38 1.62 1.77 1.77 1.71 1.74 1.83 1.75 1.59 1.59 1.51 1.58 1.58 1.76 1.83 1.75 1.79 2.02 2.01 1.96 2.07 2.05 2.19 2.42 2.38 2.24 2.25 2.26 2.43 2.68 2.85 2.67
0.41 0.44 0.49 0.56 0.57 0.62 0.80 0.90 0.97 1.11 1.27 1.35 1.40 1.44 1.57 1.54 1.53 1.48 1.47 1.55 1.58 1.56 1.63 1.66 1.63 1.68 1.78 1.88 2.01 1.91 1.86 1.98 2.09 2.24 2.39 2.41 2.33 2.35 2.25 2.35 2.58 2.82 2.87
0.49 0.47 0.55 0.57 0.57 0.58 0.73 0.85 0.91 1.00 1.10 1.12 1.15 1.26 1.34 1.33 1.31 1.31 1.28 1.39 1.45 1.50 1.52 1.55 1.60 1.59 1.68 1.92 2.21 2.11 2.06 2.08 2.14 2.19 2.35 2.46 2.63 2.63 2.49 2.47 2.46 2.60 2.77
0.62 0.60 0.65 0.61 0.65 0.67 0.71 0.81 0.79 0.81 0.88 0.96 1.01 1.07 1.19 1.20 1.19 1.22 1.37 1.45 1.44 1.39 1.30 1.37 1.42 1.38 1.49 1.76 2.07 2.22 2.29 2.36 2.33 2.39 2.58 2.63 2.67 2.61 2.50 2.52 2.50 2.50 2.72
0.65 0.80 0.82 0.68 0.68 0.70 0.72 0.75 0.72 0.75 0.80 0.86 0.89 0.94 1.08 1.25 1.32 1.36 1.43 1.52 1.53 1.47 1.45 1.47 1.43 1.56 1.65 1.68 1.86 2.05 2.16 2.25 2.27 2.41 2.47 2.47 2.59 2.51 2.47 2.34 2.33 2.37 2.56
0.67 0.83 0.92 0.72 0.63 0.64 0.65 0.67 0.67 0.64 0.62 0.73 0.87 0.97 1.17 1.39 1.49 1.51 1.53 1.54 1.55 1.52 1.57 1.56 1.59 1.69 1.72 1.68 1.77 1.93 2.07 2.15 2.18 2.27 2.38 2.44 2.46 2.50 2.60 2.46 2.47 2.63 2.75
0.70 0.70 0.74 0.67 0.64 0.64 0.64 0.65 0.67 0.67 0.69 0.86 1.00 1.15 1.37 1.46 1.51 1.59 1.61 1.66 1.68 1.60 1.68 1.73 1.69 1.68 1.60 1.53 1.77 1.92 1.94 2.11 2.16 2.16 2.14 2.23 2.43 2.50 2.54 2.34 2.47 2.67 2.68
0.76 0.84 0.84 0.80 0.84 0.80 0.76 0.78 0.79 0.85 0.99 1.14 1.28 1.36 1.45 1.52 1.49 1.49 1.51 1.66 1.73 1.79 1.90 1.93 1.90 1.79 1.56 1.75 1.85 1.89 1.96 2.07 2.10 2.10 2.02 1.94 1.97 2.06 2.19 2.20 2.22 2.35 2.46
0.91 1.02 1.07 1.03 1.04 0.98 0.97 1.07 1.05 1.13 1.29 1.46 1.62 1.63 1.61 1.65 1.65 1.68 1.70 1.72 1.85 1.97 1.99 1.96 1.96 1.90 1.91 1.93 1.73 1.68 1.63 1.68 1.74 1.75 1.73 1.51 1.44 1.75 1.84 2.02 2.01 1.91 1.94
0.93 1.05 1.13 1.12 1.06 1.06 1.12 1.35 1.46 1.44 1.56 1.67 1.79 1.89 1.91 1.98 2.05 2.12 2.10 2.14 2.19 2.24 2.17 2.08 2.08 2.13 2.12 2.14 1.82 1.71 1.58 1.56 1.55 1.55 1.51 1.51 1.52 1.60 1.76 1.83 1.79 1.72 1.69
1.04 1.19 1.19 1.16 1.16 1.33 1.40 1.46 1.57 1.57 1.73 1.92 2.06 2.15 2.21 2.23 2.25 2.27 2.38 2.51 2.64 2.66 2.55 2.49 2.51 2.52 2.58 2.59 2.22 2.07 1.81 1.72 1.62 1.64 1.71 1.74 1.59 1.65 1.67 1.67 1.63 1.60 1.63
1.19 1.32 1.34 1.31 1.38 1.64 1.71 1.78 1.87 1.93 2.00 2.11 2.28 2.46 2.56 2.59 2.56 2.61 2.76 2.92 3.07 3.08 3.07 3.07 3.06 2.97 2.94 2.91 2.50 2.33 2.07 2.00 1.92 1.93 1.82 1.73 1.55 1.50 1.45 1.45 1.52 1.45 1.45
1.16 1.30 1.34 1.36 1.44 1.65 1.85 2.13 2.28 2.32 2.32 2.37 2.50 2.62 2.72 2.85 2.90 2.98 3.06 3.22 3.32 3.27 3.21 3.15 3.11 3.01 2.96 2.86 2.53 2.35 2.12 2.10 2.09 1.97 1.86 1.76 1.62 1.43 1.40 1.35 1.34 1.37 1.47
1.18 1.26 1.39 1.47 1.59 1.73 1.98 2.19 2.36 2.53 2.63 2.62 2.75 2.79 2.80 2.72 2.71 2.94 3.12 3.30 3.48 3.44 3.35 3.38 3.25 3.10 2.97 2.71 2.48 2.29 2.15 2.20 2.22 2.13 2.01 1.91 1.77 1.53 1.46 1.33 1.31 1.36 1.33
1.16 1.20 1.28 1.41 1.52 1.62 1.83 2.21 2.34 2.40 2.48 2.57 2.62 2.73 2.79 2.83 2.88 3.06 3.22 3.41 3.50 3.43 3.31 3.30 3.24 3.04 2.84 2.69 2.44 2.21 2.11 2.14 2.09 2.15 2.22 2.04 1.87 1.67 1.53 1.49 1.46 1.38 1.30
1.12 1.17 1.26 1.37 1.46 1.43 1.59 1.81 2.04 2.16 2.19 2.22 2.25 2.25 2.37 2.54 2.77 3.07 3.16 3.22 3.28 3.28 3.23 3.12 2.99 2.94 2.92 2.86 2.59 2.27 2.03 2.00 2.04 2.08 2.13 2.00 1.84 1.64 1.51 1.52 1.43 1.28 1.26
1.09 1.17 1.34 1.35 1.39 1.45 1.49 1.54 1.60 1.81 1.96 1.96 1.97 2.08 2.18 2.35 2.55 2.78 2.93 2.89 2.92 3.10 2.99 2.76 2.58 2.46 2.37 2.47 2.40 2.14 2.00 1.98 2.06 2.11 2.15 2.07 1.96 1.82 1.68 1.59 1.59 1.56 1.49
1.13 1.20 1.30 1.29 1.29 1.38 1.44 1.48 1.57 1.74 1.81 1.76 1.76 1.80 1.85 1.99 2.18 2.33 2.45 2.47 2.26 2.32 2.20 2.03 1.88 1.76 1.74 1.78 1.68 1.55 1.51 1.59 1.77 1.85 2.01 2.05 1.95 1.86 1.81 1.77 1.73 1.69 1.60